FW8241 Weather Reports


time (UTC)temp
C
wind
direction
speed
KPH
gust
KPH
rain 1hr
cm
rain 24hr
cm
rain mn
cm
humidity
%
barometer
mb
20260502180540 23 5 4.8 14.5 0.00 0.15 0.08 79 861.5
20260502164030 23 5 4.8 16.1 0.03 0.18 0.08 77 862.2
20260502163529 23 5 8.0 16.1 0.03 0.18 0.08 77 862.2
20260502163040 23 5 4.8 12.9 0.00 0.15 0.05 76 862.2
20260502162531 23 5 3.2 14.5 0.00 0.15 0.05 77 862.2
20260502162027 23 5 4.8 14.5 0.00 0.15 0.05 75 862.2
20260502161536 23 5 3.2 12.9 0.00 0.15 0.05 77 862.1
20260502161026 23 5 6.4 12.9 0.00 0.15 0.05 75 862.1
20260502160525 22 5 0.0 14.5 0.00 0.15 0.05 79 862.1
20260502152013 21 5 0.0 6.4 0.00 0.15 0.05 85 862.3
20260502151512 20 5 1.6 6.4 0.00 0.15 0.05 84 862.3
20260502151010 19 5 1.6 4.8 0.00 0.15 0.05 90 862.2
20260502150509 19 5 0.0 1.6 0.00 0.15 0.05 92 862.2
20260502130544 13 5 4.8 8.0 0.03 0.18 0.05 94 861.5
20260502123541 13 5 4.8 8.0 0.03 0.18 0.05 94 861.3
20260502123106 13 5 6.4 8.0 0.03 0.18 0.05 94 861.2
20260502122540 13 5 6.4 9.7 0.03 0.18 0.05 93 861.2
20260502122043 13 5 6.4 9.7 0.03 0.18 0.05 93 861.2
20260502121540 13 5 6.4 9.7 0.00 0.15 0.03 93 861.1
20260502121039 13 5 6.4 9.7 0.00 0.15 0.03 94 861.1
20260502120538 13 5 6.4 9.7 0.00 0.15 0.03 94 861.0
20260502115538 13 5 6.4 8.0 0.00 0.15 0.03 94 861.1
20260502115041 13 5 4.8 8.0 0.00 0.15 0.03 94 861.1
20260502114537 13 5 4.8 8.0 0.00 0.15 0.03 94 861.0
20260502114040 14 5 4.8 8.0 0.00 0.15 0.03 94 861.0
20260502113536 14 5 6.4 8.0 0.00 0.15 0.03 94 860.9
20260502113044 14 5 6.4 8.0 0.00 0.15 0.03 94 860.9
20260502112534 14 5 6.4 8.0 0.00 0.15 0.03 94 860.8
20260502112035 14 5 6.4 8.0 0.00 0.15 0.03 94 860.7
20260502111540 14 5 4.8 8.0 0.00 0.15 0.03 94 860.7
20260502111032 15 5 6.4 8.0 0.00 0.15 0.03 94 860.7
20260502110532 15 5 4.8 8.0 0.00 0.15 0.03 94 860.7
20260502110032 15 5 6.4 8.0 0.00 0.15 0.03 94 860.5
20260502105532 15 5 6.4 8.0 0.00 0.15 0.03 94 860.5
20260502105032 15 5 4.8 8.0 0.00 0.15 0.03 95 860.5
20260502104534 15 5 6.4 8.0 0.00 0.15 0.03 95 860.4
20260502104030 15 5 4.8 8.0 0.00 0.15 0.03 95 860.4
20260502103530 15 5 4.8 8.0 0.00 0.15 0.03 95 860.4
20260502103030 15 5 4.8 8.0 0.00 0.15 0.03 95 860.4
20260502102530 15 5 4.8 6.4 0.00 0.15 0.03 95 860.4
20260502102030 15 5 4.8 6.4 0.00 0.15 0.03 95 860.4
20260502101530 15 5 3.2 6.4 0.00 0.15 0.03 95 860.4
20260502101029 15 5 3.2 6.4 0.00 0.15 0.03 95 860.4
20260502100531 15 5 3.2 4.8 0.00 0.15 0.03 95 860.4
20260502091526 15 5 3.2 6.4 0.00 0.15 0.03 95 860.3
20260502091025 15 5 3.2 6.4 0.00 0.15 0.03 95 860.3
20260502090527 15 5 3.2 6.4 0.00 0.15 0.03 95 860.4
20260502071515 16 5 4.8 6.4 0.00 0.15 0.00 95 861.2
20260502071014 16 5 4.8 6.4 0.00 0.15 0.00 95 861.2
20260502070517 16 5 4.8 6.4 0.00 0.15 0.00 95 861.3
20260502070018 15 5 4.8 6.4 0.00 0.15 0.00 95 861.3
20260502065515 15 5 3.2 6.4 0.00 0.15 0.00 95 861.3
20260502065016 15 5 4.8 6.4 0.00 0.15 0.00 95 861.3
20260502064512 15 5 4.8 6.4 0.00 0.15 0.00 95 861.4
20260502064010 15 5 4.8 6.4 0.00 0.15 0.00 95 861.6
20260502063510 15 5 3.2 6.4 0.00 0.15 0.00 95 861.6
20260502063010 15 5 3.2 6.4 0.00 0.15 0.00 95 861.6
20260502062510 15 5 4.8 6.4 0.00 0.15 0.00 95 861.7
20260502062012 15 5 3.2 6.4 0.00 0.15 0.00 95 861.7
20260502061509 15 5 4.8 6.4 0.00 0.15 0.00 95 861.7
20260502061008 15 5 3.2 6.4 0.00 0.15 0.00 95 861.7
20260502060511 15 5 3.2 6.4 0.00 0.15 0.00 95 861.7
20260502060007 15 5 4.8 6.4 0.00 0.15 0.00 95 861.7
20260502055507 15 5 4.8 6.4 0.00 0.18 0.15 95 861.8
20260502055007 15 5 4.8 6.4 0.00 0.18 0.15 95 861.8
20260502054506 15 5 4.8 6.4 0.00 0.18 0.15 95 861.8
20260502054005 15 5 4.8 6.4 0.00 0.18 0.15 95 861.8
20260502053506 16 5 4.8 6.4 0.00 0.18 0.15 95 861.9
20260502053005 16 5 4.8 6.4 0.00 0.18 0.15 95 861.9
20260502052506 16 5 4.8 6.4 0.00 0.18 0.15 94 861.9
20260502052006 16 5 4.8 6.4 0.00 0.18 0.15 95 861.9
20260502051505 16 5 4.8 6.4 0.00 0.18 0.15 94 861.9
20260502051004 16 5 4.8 6.4 0.00 0.18 0.15 95 862.0
20260502050504 16 5 4.8 6.4 0.00 0.18 0.15 95 862.0
20260502050007 16 5 4.8 8.0 0.00 0.18 0.15 95 862.0
20260502045505 16 5 4.8 8.0 0.00 0.18 0.15 95 862.1
20260502045005 16 5 4.8 6.4 0.00 0.18 0.15 94 862.1
20260502044504 16 5 4.8 6.4 0.00 0.18 0.15 94 862.2
20260502044003 16 5 3.2 6.4 0.03 0.18 0.15 95 862.3
20260502043503 16 5 4.8 6.4 0.03 0.18 0.15 94 862.3
20260502043003 16 5 4.8 6.4 0.03 0.18 0.15 94 862.3
20260502042503 16 5 3.2 6.4 0.03 0.18 0.15 94 862.3
20260502042003 17 5 3.2 6.4 0.03 0.18 0.15 94 862.3
20260502041503 17 5 3.2 6.4 0.03 0.18 0.15 94 862.4
20260502041003 17 5 3.2 6.4 0.03 0.18 0.15 95 862.4
20260502040503 17 5 3.2 4.8 0.03 0.18 0.15 95 862.4
20260502040002 17 5 3.2 4.8 0.03 0.18 0.15 94 862.4
20260502035503 17 5 3.2 6.4 0.03 0.18 0.15 94 862.3
20260502035003 17 5 3.2 6.4 0.03 0.18 0.15 95 862.3
20260502034601 17 5 3.2 4.8 0.03 0.18 0.15 95 862.3
20260502034102 17 5 3.2 4.8 0.00 0.15 0.13 94 862.3
20260502033601 17 5 1.6 4.8 0.00 0.15 0.13 94 862.2
20260502033100 17 5 3.2 4.8 0.00 0.15 0.13 94 862.1
20260502032558 17 5 1.6 4.8 0.00 0.15 0.13 94 862.0
20260502032058 17 5 3.2 4.8 0.00 0.15 0.13 94 861.9
20260502031557 17 5 1.6 4.8 0.00 0.15 0.13 94 861.9
20260502031057 18 5 1.6 3.2 0.00 0.15 0.13 94 861.7
20260502030557 18 5 1.6 4.8 0.00 0.15 0.13 94 861.7
20260502030101 18 5 1.6 4.8 0.00 0.15 0.13 95 861.6
20260502025557 18 5 3.2 4.8 0.00 0.15 0.13 95 861.6
20260502025054 18 5 1.6 4.8 0.00 0.15 0.13 95 861.5
20260502024553 18 5 1.6 4.8 0.00 0.15 0.13 95 861.4
20260502024053 18 5 1.6 4.8 0.00 0.15 0.13 95 861.3
20260502023552 18 5 1.6 4.8 0.00 0.15 0.13 95 861.2
20260502023052 18 5 1.6 4.8 0.00 0.15 0.13 95 861.1
20260502022551 18 5 3.2 4.8 0.00 0.15 0.13 95 861.0
20260502022052 18 5 1.6 4.8 0.00 0.15 0.13 95 860.9
20260502021551 18 5 1.6 4.8 0.00 0.15 0.13 95 860.9
20260502021051 18 5 1.6 3.2 0.00 0.15 0.13 95 860.8
20260502020553 18 5 1.6 4.8 0.00 0.15 0.13 95 860.6
20260502020053 18 5 3.2 4.8 0.00 0.15 0.13 95 860.7
20260502015552 18 5 1.6 3.2 0.00 0.18 0.13 95 860.5
20260502015052 18 5 1.6 3.2 0.00 0.18 0.13 95 860.6
20260502014550 18 5 1.6 4.8 0.00 0.18 0.13 95 860.4
20260502014050 18 5 1.6 4.8 0.00 0.18 0.13 95 860.2
20260502013550 18 5 1.6 4.8 0.00 0.18 0.13 95 860.1
20260502013050 18 5 0.0 4.8 0.00 0.18 0.13 95 860.0
20260502012550 18 5 1.6 4.8 0.00 0.18 0.13 95 859.9
20260502012050 18 5 0.0 0.0 0.00 0.18 0.13 95 859.9
20260502011550 18 5 0.0 0.0 0.00 0.18 0.13 94 859.8
20260502011049 19 5 0.0 0.0 0.00 0.18 0.13 94 859.7
20260502010549 19 5 0.0 0.0 0.00 0.18 0.13 94 859.6
20260502010050 19 5 0.0 0.0 0.03 0.18 0.13 94 859.5
20260502005549 19 5 0.0 0.0 0.03 0.18 0.13 94 859.5
20260502005049 19 5 0.0 0.0 0.03 0.18 0.13 94 859.4
20260502004549 19 5 0.0 0.0 0.03 0.18 0.13 94 859.4
20260502004051 19 5 0.0 0.0 0.03 0.18 0.13 94 859.2
20260502003548 19 5 0.0 0.0 0.03 0.18 0.13 94 859.2
20260502003049 20 5 0.0 0.0 0.03 0.18 0.13 94 859.1
20260502002552 20 5 0.0 4.8 0.03 0.18 0.13 94 859.2
20260502002048 20 5 0.0 4.8 0.03 0.18 0.13 93 859.0
20260502001553 20 5 1.6 4.8 0.03 0.18 0.13 93 858.8
20260502001048 20 5 0.0 8.0 0.03 0.18 0.13 93 858.9
20260502000548 20 5 1.6 8.0 0.03 0.18 0.13 93 858.9
20260502000057 20 5 0.0 8.0 0.00 0.15 0.10 93 858.8
20260501235547 20 5 1.6 4.8 0.00 0.15 0.10 93 858.6
20260501235050 20 5 0.0 4.8 0.00 0.15 0.10 93 858.6
20260501234547 20 5 1.6 9.7 0.00 0.15 0.10 93 858.4
20260501234047 20 5 3.2 9.7 0.00 0.15 0.10 93 858.4
20260501233548 21 5 0.0 6.4 0.00 0.15 0.10 93 858.3
20260501233047 21 5 1.6 8.0 0.00 0.15 0.10 93 858.2
20260501232547 21 5 4.8 8.0 0.00 0.15 0.10 92 858.2
20260501232046 21 5 4.8 8.0 0.00 0.15 0.10 92 858.2
20260501231553 21 5 3.2 8.0 0.00 0.15 0.10 91 858.0
20260501231047 21 5 1.6 8.0 0.00 0.15 0.10 91 858.0
20260501230546 21 5 3.2 9.7 0.00 0.15 0.10 91 858.0
20260501230046 21 5 1.6 20.9 0.00 0.15 0.10 90 857.9
20260501225546 21 5 6.4 17.7 0.00 0.18 0.10 89 857.9
20260501225047 21 5 1.6 12.9 0.00 0.18 0.10 91 857.7
20260501224545 21 5 1.6 8.0 0.00 0.18 0.10 91 857.8
20260501224048 21 5 4.8 8.0 0.00 0.18 0.10 90 857.8
20260501223545 22 5 0.0 8.0 0.00 0.18 0.10 91 857.6
20260501223047 22 5 3.2 9.7 0.00 0.18 0.10 91 857.8
20260501222547 21 5 3.2 9.7 0.00 0.18 0.10 90 857.8
20260501222044 21 5 0.0 4.8 0.00 0.18 0.10 91 857.9
20260501221553 21 5 0.0 6.4 0.00 0.18 0.10 91 857.8
20260501221043 21 5 0.0 16.1 0.00 0.18 0.10 90 857.9
20260501220543 21 5 4.8 16.1 0.00 0.18 0.10 89 857.9
20260501220043 21 5 4.8 16.1 0.00 0.18 0.10 89 858.0
20260501215542 21 5 1.6 4.8 0.00 0.18 0.10 90 858.0
20260501215044 21 5 0.0 4.8 0.00 0.18 0.10 89 858.0
20260501214548 21 5 0.0 4.8 0.00 0.18 0.10 89 858.0
20260501214040 21 5 0.0 0.0 0.00 0.18 0.10 90 857.9
20260501213540 21 5 0.0 8.0 0.00 0.18 0.10 90 858.1
20260501213040 21 5 3.2 8.0 0.03 0.18 0.10 88 858.1
20260501212543 21 5 0.0 0.0 0.03 0.18 0.10 92 858.2
20260501212044 21 5 0.0 3.2 0.03 0.18 0.10 92 858.2
20260501211540 21 5 0.0 3.2 0.03 0.18 0.10 91 858.2
20260501211039 21 5 1.6 3.2 0.03 0.18 0.10 90 858.2
20260501210539 22 5 0.0 3.2 0.03 0.18 0.10 89 858.2
20260501210038 22 5 0.0 4.8 0.03 0.18 0.10 87 858.2
20260501205538 22 5 0.0 4.8 0.03 0.18 0.10 85 858.2
20260501205038 22 5 0.0 4.8 0.03 0.18 0.10 83 858.2
20260501204538 22 5 0.0 4.8 0.03 0.18 0.10 85 858.2
20260501204036 22 5 0.0 8.0 0.03 0.18 0.10 83 858.3
20260501203536 22 5 3.2 8.0 0.03 0.18 0.10 81 858.4
20260501203036 22 5 1.6 8.0 0.00 0.15 0.08 82 858.4
20260501202536 22 5 0.0 9.7 0.00 0.15 0.08 84 858.5
20260501202037 22 5 3.2 9.7 0.00 0.15 0.08 82 858.6
20260501201536 22 5 3.2 9.7 0.00 0.15 0.08 83 858.7
20260501201035 22 5 1.6 6.4 0.00 0.15 0.08 83 858.8
20260501200533 22 5 3.2 12.9 0.00 0.15 0.08 83 858.9
20260501200038 22 5 3.2 12.9 0.00 0.15 0.08 83 858.9
20260501195535 22 5 0.0 8.0 0.00 0.15 0.08 84 858.9
20260501195035 22 5 3.2 8.0 0.00 0.15 0.08 83 859.0
20260501194537 22 5 0.0 8.0 0.00 0.15 0.08 84 859.1
20260501194031 22 5 0.0 14.5 0.00 0.15 0.08 79 859.1
20260501193531 22 5 1.6 12.9 0.00 0.15 0.08 82 859.1
20260501193035 22 5 0.0 3.2 0.00 0.15 0.08 82 859.2
20260501192528 22 5 0.0 1.6 0.00 0.15 0.08 87 859.3
20260501192028 22 5 0.0 1.6 0.00 0.15 0.08 86 859.3
20260501191530 22 5 0.0 3.2 0.00 0.15 0.08 87 859.4
20260501191029 22 5 0.0 3.2 0.00 0.15 0.08 90 859.5
20260501190526 22 5 0.0 4.8 0.00 0.15 0.08 87 859.5
20260501190039 21 5 0.0 3.2 0.00 0.15 0.08 88 859.6
20260501185525 21 5 0.0 3.2 0.00 0.18 0.08 88 859.8
20260501185027 21 5 0.0 8.0 0.00 0.18 0.08 90 859.9
20260501184525 21 5 0.0 8.0 0.00 0.18 0.08 89 860.0
20260501184025 21 5 0.0 6.4 0.00 0.18 0.08 90 860.0
20260501183527 21 5 0.0 3.2 0.00 0.18 0.08 90 860.0
20260501183024 21 5 0.0 3.2 0.00 0.18 0.08 89 860.0
20260501182524 21 5 0.0 6.4 0.00 0.18 0.08 89 860.1
20260501182026 21 5 3.2 6.4 0.00 0.18 0.08 88 860.2
20260501181528 21 5 0.0 8.0 0.03 0.18 0.08 88 860.2
20260501181024 21 5 3.2 6.4 0.03 0.18 0.08 90 860.2